Tracking 29059 objects as of 19-Jun-2024
HD Live streaming from Space Station
objects crossing your sky now

SL-14 DEB

Track SL-14 DEB now!
10-day predictions


NORAD ID: 26030
Int'l Code: 1991-068AU
Perigee: 1,336.6 km
Apogee: 1,465.8 km
Inclination: 82.7 °
Period: 113.7 minutes
Semi major axis: 7772 km
RCS: 0.0026 m2 (small)
Launch date: September 28, 1991
Source: Commonwealth of Independent States (former USSR) (CIS)
Launch site: PLESETSK MISSILE AND SPACE COMPLEX (PKMTR)

Note: This is SATELLITE DEBRIS
Your satellite tracking list
Your tracking list is empty




NASA's NSSDC Master Catalog

Two Line Element Set (TLE):
1 26030U 91068AU  24170.65906806  .00000259  00000-0  12821-2 0  9991
2 26030  82.6762 140.6008 0083100 146.6596  30.0198 12.67031752500338
Source of the keplerian elements: AFSPC